TimeCDT,TemperatureF,Dew PointF,Humidity,Sea Level PressureIn,VisibilityMPH,Wind Direction,Wind SpeedMPH,Gust SpeedMPH,PrecipitationIn,Events,Conditions,WindDirDegrees,DateUTC
12:15 AM,53.6,50.0,88,29.99,10.0,Calm,Calm,-,N/A,,Clear,0,2012-10-04 05:15:00
12:35 AM,53.6,50.0,88,29.99,10.0,SE,3.5,-,N/A,,Clear,130,2012-10-04 05:35:00
12:55 AM,55.4,48.2,77,29.99,10.0,SE,3.5,-,N/A,,Clear,130,2012-10-04 05:55:00
1:15 AM,53.6,48.2,82,29.99,10.0,SE,3.5,-,N/A,,Clear,130,2012-10-04 06:15:00
1:35 AM,51.8,48.2,88,29.99,10.0,Calm,Calm,-,N/A,,Clear,0,2012-10-04 06:35:00
1:55 AM,51.8,48.2,88,30.00,10.0,ESE,3.5,-,N/A,,Clear,120,2012-10-04 06:55:00
2:15 AM,53.6,48.2,82,30.01,10.0,SE,3.5,-,N/A,,Clear,130,2012-10-04 07:15:00
2:35 AM,53.6,48.2,82,30.01,10.0,SE,3.5,-,N/A,,Clear,130,2012-10-04 07:35:00
2:55 AM,53.6,50.0,88,30.01,10.0,Calm,Calm,-,N/A,,Clear,0,2012-10-04 07:55:00
3:15 AM,55.4,50.0,82,30.00,10.0,SSE,3.5,-,N/A,,Clear,150,2012-10-04 08:15:00
3:35 AM,55.4,50.0,82,29.99,10.0,SE,3.5,-,N/A,,Clear,130,2012-10-04 08:35:00
3:55 AM,57.2,50.0,77,29.99,10.0,SE,3.5,-,N/A,,Clear,130,2012-10-04 08:55:00
4:15 AM,59.0,51.8,77,29.99,10.0,Calm,Calm,-,N/A,,Clear,0,2012-10-04 09:15:00
4:35 AM,57.2,51.8,82,30.00,10.0,Calm,Calm,-,N/A,,Clear,0,2012-10-04 09:35:00
4:55 AM,59.0,51.8,77,30.01,10.0,SE,3.5,-,N/A,,Clear,140,2012-10-04 09:55:00
5:15 AM,60.8,51.8,72,30.02,10.0,South,5.8,-,N/A,,Scattered Clouds,180,2012-10-04 10:15:00
5:35 AM,62.6,51.8,68,30.03,10.0,SW,4.6,-,N/A,,Scattered Clouds,230,2012-10-04 10:35:00
5:55 AM,60.8,51.8,72,30.05,10.0,NW,4.6,-,N/A,,Clear,310,2012-10-04 10:55:00
6:15 AM,59.0,51.8,77,30.07,10.0,WNW,4.6,-,N/A,,Clear,300,2012-10-04 11:15:00
6:35 AM,60.8,51.8,72,30.07,10.0,WNW,10.4,16.1,N/A,,Clear,290,2012-10-04 11:35:00
6:55 AM,60.8,46.4,59,30.09,10.0,NW,11.5,19.6,N/A,,Clear,320,2012-10-04 11:55:00
7:15 AM,59.0,44.6,59,30.10,10.0,NW,9.2,-,N/A,,Clear,310,2012-10-04 12:15:00
7:35 AM,57.2,44.6,63,30.10,10.0,NW,8.1,-,N/A,,Clear,320,2012-10-04 12:35:00
7:55 AM,55.4,44.6,67,30.11,10.0,NNW,4.6,-,N/A,,Scattered Clouds,330,2012-10-04 12:55:00
8:15 AM,55.4,42.8,63,30.09,10.0,North,6.9,-,N/A,Thunderstorm,Scattered Clouds,350,2012-10-04 13:15:00
8:35 AM,55.4,44.6,67,30.11,10.0,NW,9.2,-,N/A,Thunderstorm,Clear,320,2012-10-04 13:35:00
8:55 AM,55.4,42.8,63,30.12,10.0,NW,6.9,-,N/A,Thunderstorm,Clear,310,2012-10-04 13:55:00
9:15 AM,55.4,42.8,63,30.14,10.0,NW,8.1,-,N/A,Thunderstorm,Unknown,310,2012-10-04 14:15:00
9:35 AM,55.4,42.8,63,30.17,10.0,NW,15.0,18.4,N/A,,Clear,320,2012-10-04 14:35:00
9:55 AM,55.4,42.8,63,30.18,10.0,NW,12.7,18.4,N/A,,Clear,310,2012-10-04 14:55:00
10:15 AM,55.4,42.8,63,30.18,10.0,NW,11.5,17.3,N/A,,Clear,320,2012-10-04 15:15:00
10:35 AM,57.2,44.6,63,30.18,10.0,NNW,19.6,-,N/A,,Clear,340,2012-10-04 15:35:00
10:55 AM,57.2,44.6,63,30.20,10.0,NW,10.4,-,N/A,,Clear,320,2012-10-04 15:55:00
11:15 AM,57.2,44.6,63,30.21,10.0,NW,15.0,20.7,N/A,Thunderstorm,Scattered Clouds,320,2012-10-04 16:15:00
11:35 AM,57.2,44.6,63,30.19,10.0,NNW,15.0,-,N/A,,Scattered Clouds,330,2012-10-04 16:35:00
11:55 AM,59.0,44.6,59,30.21,10.0,NNW,11.5,18.4,N/A,Thunderstorm,Scattered Clouds,340,2012-10-04 16:55:00
12:15 PM,57.2,44.6,63,30.20,10.0,NNW,15.0,-,N/A,,Scattered Clouds,330,2012-10-04 17:15:00
12:35 PM,57.2,42.8,59,30.22,10.0,NNW,16.1,-,N/A,,Scattered Clouds,340,2012-10-04 17:35:00
12:55 PM,55.4,42.8,63,30.22,10.0,NNW,19.6,23.0,N/A,,Scattered Clouds,340,2012-10-04 17:55:00
1:15 PM,53.6,41.0,62,30.22,10.0,NNW,10.4,24.2,N/A,,Scattered Clouds,340,2012-10-04 18:15:00
1:35 PM,55.4,42.8,63,30.23,10.0,NW,17.3,23.0,N/A,,Scattered Clouds,310,2012-10-04 18:35:00
2:15 PM,53.6,41.0,62,30.23,10.0,NNW,13.8,21.9,N/A,,Mostly Cloudy,330,2012-10-04 19:15:00
2:35 PM,53.6,42.8,67,30.23,10.0,NNW,11.5,18.4,N/A,,Mostly Cloudy,330,2012-10-04 19:35:00
2:55 PM,51.8,42.8,71,30.23,10.0,NW,15.0,18.4,N/A,,Overcast,320,2012-10-04 19:55:00
3:15 PM,50.0,41.0,71,30.24,10.0,NNW,10.4,17.3,N/A,,Overcast,330,2012-10-04 20:15:00
3:35 PM,50.0,41.0,71,30.24,10.0,NNW,15.0,18.4,N/A,,Overcast,340,2012-10-04 20:35:00
3:55 PM,48.2,39.2,71,30.25,10.0,NNW,10.4,17.3,N/A,,Overcast,340,2012-10-04 20:55:00
4:15 PM,48.2,39.2,71,30.25,10.0,North,10.4,-,N/A,,Overcast,350,2012-10-04 21:15:00
4:35 PM,50.0,39.2,66,30.25,10.0,North,11.5,-,N/A,,Overcast,350,2012-10-04 21:35:00
5:15 PM,50.0,39.2,66,30.24,10.0,North,6.9,-,N/A,,Overcast,350,2012-10-04 22:15:00
5:35 PM,50.0,39.2,66,30.25,10.0,NNW,4.6,-,N/A,,Overcast,330,2012-10-04 22:35:00
5:55 PM,50.0,41.0,71,30.24,10.0,NNW,3.5,-,N/A,,Unknown,340,2012-10-04 22:55:00
6:15 PM,50.0,41.0,71,30.24,7.0,North,3.5,-,N/A,,Overcast,350,2012-10-04 23:15:00
6:35 PM,50.0,41.0,71,30.23,10.0,Calm,Calm,-,N/A,,Overcast,0,2012-10-04 23:35:00
6:55 PM,50.0,41.0,71,30.24,10.0,Calm,Calm,-,N/A,,Overcast,0,2012-10-04 23:55:00
7:15 PM,50.0,41.0,71,30.24,10.0,Calm,Calm,-,N/A,Rain,Light Rain,0,2012-10-05 00:15:00
7:55 PM,50.0,42.8,76,30.24,10.0,Calm,Calm,-,N/A,,Overcast,0,2012-10-05 00:55:00
8:15 PM,50.0,46.4,87,30.24,10.0,Calm,Calm,-,N/A,Thunderstorm,Thunderstorm,0,2012-10-05 01:15:00
8:35 PM,48.2,44.6,87,30.24,2.5,Calm,Calm,-,N/A,Rain,Light Rain,0,2012-10-05 01:35:00
9:15 PM,48.2,46.4,93,30.24,10.0,Calm,Calm,-,N/A,,Overcast,0,2012-10-05 02:15:00
9:35 PM,48.2,46.4,93,30.24,10.0,Calm,Calm,-,N/A,Thunderstorm,Thunderstorm,0,2012-10-05 02:35:00
9:55 PM,48.2,46.4,93,30.25,10.0,NW,3.5,-,N/A,Rain-Thunderstorm,Light Thunderstorms and Rain,310,2012-10-05 02:55:00
10:15 PM,48.2,44.6,87,30.24,10.0,Calm,Calm,-,N/A,Rain-Thunderstorm,Rain,0,2012-10-05 03:15:00
10:35 PM,48.2,44.6,87,30.24,10.0,Calm,Calm,-,N/A,Rain-Thunderstorm,Light Thunderstorms and Rain,0,2012-10-05 03:35:00
10:55 PM,50.0,46.4,87,30.23,10.0,Calm,Calm,-,N/A,Thunderstorm,Overcast,0,2012-10-05 03:55:00
11:15 PM,48.2,46.4,93,30.24,10.0,Calm,Calm,-,N/A,Thunderstorm,Overcast,0,2012-10-05 04:15:00
11:35 PM,48.2,46.4,93,30.25,10.0,NNW,3.5,-,N/A,Thunderstorm,Overcast,340,2012-10-05 04:35:00
11:55 PM,48.2,46.4,93,30.25,10.0,Calm,Calm,-,N/A,Thunderstorm,Overcast,0,2012-10-05 04:55:00